Tracking 25710 objects as of 4-Jul-2022
HD Live streaming from Space Station
objects crossing your sky now

STARLINK-2372

Track STARLINK-2372 now!
10-day predictions
STARLINK-2372 is classified as:


NORAD ID: 47912
Int'l Code: 2021-021BE
Perigee: 553.2 km
Apogee: 555.5 km
Inclination: 53.1 °
Period: 95.6 minutes
Semi major axis: 6925 km
RCS: Unknown
Launch date: March 14, 2021
Source: United States (US)
Launch site: AIR FORCE EASTERN TEST RANGE (AFETR)
aabbcc
Your satellite tracking list
Your tracking list is empty




NASA's NSSDC Master Catalog

Two Line Element Set (TLE):
1 47912U 21021BE  22185.49493719  .00000489  00000-0  51716-4 0  9998
2 47912  53.0548 185.9387 0001727  53.7317 306.3831 15.06401490 73435
Source of the keplerian elements: AFSPC